DIAMANT DEB, 2685

Orbit data source: Space-Track

DIAMANT DEB, 2685 is space debris in LEO originally from a launch on Wed, 15 Feb 1967 UTC launched from the Hamma Guira Space Track Range (HGSTR). Debris objects in space refer to the collection of defunct objects orbiting the Earth. Examples of debris include non-operational satellites, rocket bodies, and fragments generated from explosions, collisions, or faulty payload assembly.

Loading next visibility...
Identifier
2685, 1967-014F
Orbit
LEO
Country
Flag of FRFR
Related business
Manufacturer
Unknown
Mission
Spacecraft
Bus & Motor
Unknown
Mass
Unknown
Launch date (UTC)
1967-02-15 (59 years ago)
Launch vehicle
Unknown
Launch site
Hamma Guira Space Track Range (HGSTR)
Object type
Payload
Rocket body
Debris
Shape & HBR
Unknown
Radar Cross Section
Small (<0.1 m²)

Expand to show TLE details & history
Last TLE update: 13 hours ago

TLE from 13 hours ago
0 DIAMANT DEB
1 02685U 67014F   25260.96455857  .00004352  00000-0  78080-3 0  9993
2 02685  38.9312  87.5333 0358836  14.0425 347.0006 14.32937327928355
Epoch: 2025-09-17T23:08Z
TLE epoch observation values (Epoch: 2025-09-17T23:08:57.86Z)
Latitude
-0°
Longitude
103.15926°
Altitude
531.471 km
Speed
7.73 km/s
True Right ascension
05h 50m 07s
True Declination
0° 00' 00"
Sunlit
Object was in daylight at epoch
Visualization orbit readout
Latitude
Unknown
Longitude
Unknown
Altitude
Unknown
Speed
Unknown
Apparent Right ascension
Unknown
Apparent Declination
Unknown
Sunlit
N/A
Visualization observer readout
Local Sidereal Time
04:45:42
Azimuth
Unknown
Elevation
Unknown
Doppler factor
Unknown
Orbital elements
Apogee altitude
1,041.466 km
Perigee altitude
527.428 km
Semi-major axis
7,162.584 km
Eccentricity
0.03588
Inclination
38.9312°
RAAN
87.5333°
Arg. of periapsis
14.0425°
True anomaly
346.03351°
Mean anomaly
347.0006°
Eccentric anomaly
346.52139°
Mean motion
3.58046 °/min
Orbital period
100.55 mins
BSTAR
0.0007808
Loading maneuver chart data...
Computing Atmospheric mass density...
Loading historical data...
Loading historical data...
Loading historical data...
Loading historical data...
Loading historical data...
Loading historical data...
Loading historical data...

Documentation

Showing up to 5 results
|